Time,TemperatureF,DewpointF,PressureIn,WindDirection,WindDirectionDegrees,WindSpeedMPH,WindSpeedGustMPH,Humidity,HourlyPrecipIn,Conditions,Clouds,dailyrainin,SoftwareType,DateUTC
2013-02-14 00:01:00,24.6,21.0,29.82,West,280,1.0,9.0,86,0.00,,---,0.00,VWS V14.01,2013-02-14 05:01:00,
2013-02-14 00:04:00,24.6,21.0,29.82,West,280,1.0,2.0,86,0.00,,---,0.00,VWS V14.01,2013-02-14 05:04:00,
2013-02-14 00:10:00,24.5,20.9,29.82,WSW,258,2.0,6.0,86,0.00,,---,0.00,VWS V14.01,2013-02-14 05:10:00,
2013-02-14 00:16:00,24.5,21.2,29.82,West,270,0.0,6.0,87,0.00,,---,0.00,VWS V14.01,2013-02-14 05:16:00,
2013-02-14 00:20:00,24.6,21.3,29.82,West,275,0.0,6.0,87,0.00,,---,0.00,VWS V14.01,2013-02-14 05:20:00,
2013-02-14 00:26:00,24.6,21.3,29.82,West,276,3.0,6.0,87,0.00,,---,0.00,VWS V14.01,2013-02-14 05:26:00,
2013-02-14 00:31:00,24.5,20.9,29.83,West,264,1.0,6.0,86,0.00,,---,0.00,VWS V14.01,2013-02-14 05:31:00,
2013-02-14 00:38:00,24.4,20.8,29.83,West,265,3.0,6.0,86,0.00,,---,0.00,VWS V14.01,2013-02-14 05:38:00,
2013-02-14 00:44:00,24.3,21.0,29.83,West,269,3.0,6.0,87,0.00,,---,0.00,VWS V14.01,2013-02-14 05:44:00,
2013-02-14 00:50:00,24.3,20.7,29.83,West,269,2.0,6.0,86,0.00,,---,0.00,VWS V14.01,2013-02-14 05:50:00,
2013-02-14 00:56:00,24.1,20.5,29.83,WNW,286,4.0,6.0,86,0.00,,---,0.00,VWS V14.01,2013-02-14 05:56:00,
2013-02-14 01:01:00,23.9,20.3,29.83,West,267,2.0,7.0,86,0.00,,---,0.00,VWS V14.01,2013-02-14 06:01:00,
2013-02-14 01:08:00,23.7,20.4,29.84,WNW,283,3.0,6.0,87,0.00,,---,0.00,VWS V14.01,2013-02-14 06:08:00,
2013-02-14 01:14:00,23.6,20.3,29.84,West,266,3.0,6.0,87,0.00,,---,0.00,VWS V14.01,2013-02-14 06:14:00,
2013-02-14 01:20:00,23.6,20.3,29.84,West,263,4.0,6.0,87,0.00,,---,0.00,VWS V14.01,2013-02-14 06:20:00,
2013-02-14 01:26:00,23.7,20.4,29.85,West,265,1.0,6.0,87,0.00,,---,0.00,VWS V14.01,2013-02-14 06:26:00,
2013-02-14 01:31:00,23.7,20.4,29.84,West,279,4.0,6.0,87,0.00,,---,0.00,VWS V14.01,2013-02-14 06:31:00,
2013-02-14 01:38:00,23.6,20.3,29.84,West,272,1.0,6.0,87,0.00,,---,0.00,VWS V14.01,2013-02-14 06:38:00,
2013-02-14 01:44:00,23.6,20.3,29.85,WNW,286,4.0,6.0,87,0.00,,---,0.00,VWS V14.01,2013-02-14 06:44:00,
2013-02-14 01:50:00,23.5,20.2,29.85,WNW,287,6.0,6.0,87,0.00,,---,0.00,VWS V14.01,2013-02-14 06:50:00,
2013-02-14 01:56:00,23.3,19.7,29.85,West,277,3.0,6.0,86,0.00,,---,0.00,VWS V14.01,2013-02-14 06:56:00,
2013-02-14 02:02:00,23.1,19.5,29.85,West,262,1.0,3.0,86,0.00,,---,0.00,VWS V14.01,2013-02-14 07:02:00,
2013-02-14 02:09:00,23.0,19.5,29.85,WSW,252,1.0,5.0,86,0.00,,---,0.00,VWS V14.01,2013-02-14 07:09:00,
2013-02-14 02:15:00,22.8,19.2,29.85,West,276,2.0,5.0,86,0.00,,---,0.00,VWS V14.01,2013-02-14 07:15:00,
2013-02-14 02:21:00,22.8,19.5,29.85,WSW,249,2.0,5.0,87,0.00,,---,0.00,VWS V14.01,2013-02-14 07:21:00,
2013-02-14 02:27:00,22.7,19.4,29.85,WSW,254,2.0,5.0,87,0.00,,---,0.00,VWS V14.01,2013-02-14 07:27:00,
2013-02-14 02:33:00,22.6,19.3,29.85,WSW,254,1.0,2.0,87,0.00,,---,0.00,VWS V14.01,2013-02-14 07:33:00,
2013-02-14 02:39:00,22.7,19.4,29.86,WNW,288,0.0,4.0,87,0.00,,---,0.00,VWS V14.01,2013-02-14 07:39:00,
2013-02-14 02:45:00,22.7,19.4,29.86,West,259,3.0,6.0,87,0.00,,---,0.00,VWS V14.01,2013-02-14 07:45:00,
2013-02-14 02:51:00,22.8,19.5,29.86,WSW,253,1.0,6.0,87,0.00,,---,0.00,VWS V14.01,2013-02-14 07:51:00,
2013-02-14 02:57:00,22.8,19.5,29.86,WSW,237,0.0,6.0,87,0.00,,---,0.00,VWS V14.01,2013-02-14 07:57:00,
2013-02-14 03:03:00,22.8,19.5,29.85,WSW,242,2.0,3.0,87,0.00,,---,0.00,VWS V14.01,2013-02-14 08:03:00,
2013-02-14 03:09:00,22.8,19.5,29.86,WSW,256,1.0,3.0,87,0.00,,---,0.00,VWS V14.01,2013-02-14 08:09:00,
2013-02-14 03:15:00,22.8,19.5,29.86,SSW,199,0.0,3.0,87,0.00,,---,0.00,VWS V14.01,2013-02-14 08:15:00,
2013-02-14 03:21:00,22.7,19.4,29.86,West,266,2.0,4.0,87,0.00,,---,0.00,VWS V14.01,2013-02-14 08:21:00,
2013-02-14 03:27:00,22.7,19.4,29.86,West,277,3.0,4.0,87,0.00,,---,0.00,VWS V14.01,2013-02-14 08:27:00,
2013-02-14 03:33:00,22.8,19.8,29.86,West,269,3.0,3.0,88,0.00,,---,0.00,VWS V14.01,2013-02-14 08:33:00,
2013-02-14 03:39:00,22.8,19.8,29.86,SW,227,1.0,4.0,88,0.00,,---,0.00,VWS V14.01,2013-02-14 08:39:00,
2013-02-14 03:45:00,22.8,19.8,29.86,SW,227,2.0,4.0,88,0.00,,---,0.00,VWS V14.01,2013-02-14 08:45:00,
2013-02-14 03:51:00,22.8,19.8,29.86,WNW,296,0.0,4.0,88,0.00,,---,0.00,VWS V14.01,2013-02-14 08:51:00,
2013-02-14 03:57:00,22.8,19.8,29.86,SSW,193,1.0,4.0,88,0.00,,---,0.00,VWS V14.01,2013-02-14 08:57:00,
2013-02-14 04:03:00,22.8,19.8,29.86,SSW,192,2.0,2.0,88,0.00,,---,0.00,VWS V14.01,2013-02-14 09:03:00,
2013-02-14 04:09:00,22.8,19.8,29.86,West,273,0.0,3.0,88,0.00,,---,0.00,VWS V14.01,2013-02-14 09:09:00,
2013-02-14 04:15:00,22.9,19.9,29.87,West,272,0.0,3.0,88,0.00,,---,0.00,VWS V14.01,2013-02-14 09:15:00,
2013-02-14 04:21:00,22.9,19.9,29.87,West,272,2.0,3.0,88,0.00,,---,0.00,VWS V14.01,2013-02-14 09:21:00,
2013-02-14 04:28:00,23.0,20.0,29.88,West,272,0.0,3.0,88,0.00,,---,0.00,VWS V14.01,2013-02-14 09:28:00,
2013-02-14 04:34:00,23.0,20.0,29.87,West,272,1.0,1.0,88,0.00,,---,0.00,VWS V14.01,2013-02-14 09:34:00,
2013-02-14 04:40:00,23.0,20.0,29.87,West,272,0.0,1.0,88,0.00,,---,0.00,VWS V14.01,2013-02-14 09:40:00,
2013-02-14 04:46:00,23.0,20.0,29.87,West,272,0.0,3.0,88,0.00,,---,0.00,VWS V14.01,2013-02-14 09:46:00,
2013-02-14 04:52:00,22.8,19.8,29.88,West,272,0.0,3.0,88,0.00,,---,0.00,VWS V14.01,2013-02-14 09:52:00,
2013-02-14 04:58:00,22.7,19.7,29.88,West,272,0.0,3.0,88,0.00,,---,0.00,VWS V14.01,2013-02-14 09:58:00,
2013-02-14 05:04:00,22.5,19.5,29.88,West,272,0.0,0.0,88,0.00,,---,0.00,VWS V14.01,2013-02-14 10:04:00,
2013-02-14 05:10:00,22.2,19.2,29.88,West,272,0.0,1.0,88,0.00,,---,0.00,VWS V14.01,2013-02-14 10:10:00,
2013-02-14 05:16:00,22.0,19.0,29.88,West,272,1.0,2.0,88,0.00,,---,0.00,VWS V14.01,2013-02-14 10:16:00,
2013-02-14 05:22:00,21.7,18.7,29.88,West,272,0.0,2.0,88,0.00,,---,0.00,VWS V14.01,2013-02-14 10:22:00,
2013-02-14 05:28:00,21.5,18.5,29.87,West,272,0.0,2.0,88,0.00,,---,0.00,VWS V14.01,2013-02-14 10:28:00,
2013-02-14 05:34:00,21.2,18.2,29.88,West,272,0.0,1.0,88,0.00,,---,0.00,VWS V14.01,2013-02-14 10:34:00,
2013-02-14 05:40:00,21.1,18.1,29.88,West,272,0.0,1.0,88,0.00,,---,0.00,VWS V14.01,2013-02-14 10:40:00,
2013-02-14 05:46:00,21.0,18.3,29.88,West,272,0.0,2.0,89,0.00,,---,0.00,VWS V14.01,2013-02-14 10:46:00,
2013-02-14 05:52:00,21.0,18.3,29.89,West,272,0.0,2.0,89,0.00,,---,0.00,VWS V14.01,2013-02-14 10:52:00,
2013-02-14 05:58:00,21.1,18.4,29.89,West,272,0.0,2.0,89,0.00,,---,0.00,VWS V14.01,2013-02-14 10:58:00,
2013-02-14 06:04:00,21.2,18.7,29.89,SE,138,0.0,4.0,90,0.00,,---,0.00,VWS V14.01,2013-02-14 11:04:00,
2013-02-14 06:10:00,21.3,18.8,29.89,South,173,1.0,4.0,90,0.00,,---,0.00,VWS V14.01,2013-02-14 11:10:00,
2013-02-14 06:16:00,21.6,19.1,29.90,South,173,0.0,4.0,90,0.00,,---,0.00,VWS V14.01,2013-02-14 11:16:00,
2013-02-14 06:22:00,21.8,19.3,29.90,SSW,198,0.0,4.0,90,0.00,,---,0.00,VWS V14.01,2013-02-14 11:22:00,
2013-02-14 06:29:00,22.0,19.5,29.90,SSW,205,0.0,5.0,90,0.00,,---,0.00,VWS V14.01,2013-02-14 11:29:00,
2013-02-14 06:35:00,22.2,20.0,29.90,WSW,242,0.0,5.0,91,0.00,,---,0.00,VWS V14.01,2013-02-14 11:35:00,
2013-02-14 06:41:00,22.4,19.9,29.91,SSE,148,1.0,5.0,90,0.00,,---,0.00,VWS V14.01,2013-02-14 11:41:00,
2013-02-14 06:47:00,22.5,20.0,29.91,SSW,195,2.0,5.0,90,0.00,,---,0.00,VWS V14.01,2013-02-14 11:47:00,
2013-02-14 06:53:00,22.6,20.1,29.91,WSW,257,0.0,5.0,90,0.00,,---,0.00,VWS V14.01,2013-02-14 11:53:00,
2013-02-14 06:59:00,22.7,20.2,29.91,ESE,117,0.0,6.0,90,0.00,,---,0.00,VWS V14.01,2013-02-14 11:59:00,
2013-02-14 07:05:00,22.8,20.3,29.91,South,188,1.0,4.0,90,0.00,,---,0.00,VWS V14.01,2013-02-14 12:05:00,
2013-02-14 07:11:00,22.9,20.4,29.91,WSW,237,0.0,4.0,90,0.00,,---,0.00,VWS V14.01,2013-02-14 12:11:00,
2013-02-14 07:17:00,23.0,22.5,29.91,SW,224,0.0,5.0,98,0.00,,---,0.00,VWS V14.01,2013-02-14 12:17:00,
2013-02-14 07:23:00,23.1,20.6,29.91,ESE,114,0.0,5.0,90,0.00,,---,0.00,VWS V14.01,2013-02-14 12:23:00,
2013-02-14 07:29:00,23.2,20.7,29.91,SE,137,1.0,5.0,90,0.00,,---,0.00,VWS V14.01,2013-02-14 12:29:00,
2013-02-14 07:35:00,23.4,20.9,29.92,SE,137,0.0,2.0,90,0.00,,---,0.00,VWS V14.01,2013-02-14 12:35:00,
2013-02-14 07:41:00,23.5,21.0,29.92,South,188,0.0,5.0,90,0.00,,---,0.00,VWS V14.01,2013-02-14 12:41:00,
2013-02-14 07:47:00,23.7,21.2,29.92,SW,217,0.0,5.0,90,0.00,,---,0.00,VWS V14.01,2013-02-14 12:47:00,
2013-02-14 07:53:00,23.9,21.4,29.92,SSE,161,0.0,5.0,90,0.00,,---,0.00,VWS V14.01,2013-02-14 12:53:00,
2013-02-14 07:59:00,24.0,21.5,29.91,NW,323,0.0,5.0,90,0.00,,---,0.00,VWS V14.01,2013-02-14 12:59:00,
2013-02-14 08:05:00,24.3,21.8,29.92,ENE,67,0.0,3.0,90,0.00,,---,0.00,VWS V14.01,2013-02-14 13:05:00,
2013-02-14 08:11:00,24.4,21.9,29.92,SW,219,0.0,5.0,90,0.00,,---,0.00,VWS V14.01,2013-02-14 13:11:00,
2013-02-14 08:17:00,24.7,22.2,29.92,WSW,241,0.0,5.0,90,0.00,,---,0.00,VWS V14.01,2013-02-14 13:17:00,
2013-02-14 08:23:00,24.9,22.4,29.92,ENE,58,0.0,5.0,90,0.00,,---,0.00,VWS V14.01,2013-02-14 13:23:00,
2013-02-14 08:29:00,25.1,22.3,29.92,WSW,240,2.0,5.0,89,0.00,,---,0.00,VWS V14.01,2013-02-14 13:29:00,
2013-02-14 08:36:00,25.2,22.4,29.92,South,171,0.0,3.0,89,0.00,,---,0.00,VWS V14.01,2013-02-14 13:36:00,
2013-02-14 08:42:00,25.3,22.5,29.92,SSE,165,0.0,3.0,89,0.00,,---,0.00,VWS V14.01,2013-02-14 13:42:00,
2013-02-14 08:48:00,25.5,22.7,29.92,SW,223,0.0,3.0,89,0.00,,---,0.00,VWS V14.01,2013-02-14 13:48:00,
2013-02-14 08:54:00,25.6,22.8,29.92,SW,223,0.0,6.0,89,0.00,,---,0.00,VWS V14.01,2013-02-14 13:54:00,
2013-02-14 09:01:00,25.8,23.0,29.92,South,180,2.0,6.0,89,0.00,,---,0.00,VWS V14.01,2013-02-14 14:01:00,
2013-02-14 09:08:00,25.9,23.1,29.92,SW,233,0.0,4.0,89,0.00,,---,0.00,VWS V14.01,2013-02-14 14:08:00,
2013-02-14 09:14:00,26.0,23.2,29.92,SSW,194,0.0,5.0,89,0.00,,---,0.00,VWS V14.01,2013-02-14 14:14:00,
2013-02-14 09:23:00,26.2,23.4,29.92,WNW,300,2.0,5.0,89,0.00,,---,0.00,VWS V14.01,2013-02-14 14:23:00,
2013-02-14 09:29:00,26.4,23.6,29.92,South,190,4.0,5.0,89,0.00,,---,0.00,VWS V14.01,2013-02-14 14:29:00,
2013-02-14 09:35:00,26.6,23.8,29.91,South,190,1.0,2.0,89,0.00,,---,0.00,VWS V14.01,2013-02-14 14:35:00,
2013-02-14 09:41:00,26.9,24.1,29.91,ESE,123,1.0,2.0,89,0.00,,---,0.00,VWS V14.01,2013-02-14 14:41:00,
2013-02-14 09:47:00,27.1,24.3,29.91,WSW,244,0.0,3.0,89,0.00,,---,0.00,VWS V14.01,2013-02-14 14:47:00,
2013-02-14 09:53:00,27.3,24.5,29.91,WSW,244,0.0,3.0,89,0.00,,---,0.00,VWS V14.01,2013-02-14 14:53:00,
2013-02-14 09:59:00,27.4,24.3,29.91,South,188,2.0,4.0,88,0.00,,---,0.00,VWS V14.01,2013-02-14 14:59:00,
2013-02-14 10:05:00,27.5,24.4,29.91,South,189,0.0,1.0,88,0.00,,---,0.00,VWS V14.01,2013-02-14 15:05:00,
2013-02-14 10:11:00,27.6,24.5,29.91,WSW,238,1.0,4.0,88,0.00,,---,0.00,VWS V14.01,2013-02-14 15:11:00,
2013-02-14 10:17:00,27.8,25.0,29.91,South,189,0.0,4.0,89,0.00,,---,0.00,VWS V14.01,2013-02-14 15:17:00,
2013-02-14 10:23:00,27.9,25.1,29.91,SW,217,0.0,4.0,89,0.00,,---,0.00,VWS V14.01,2013-02-14 15:23:00,
2013-02-14 10:29:00,28.0,25.2,29.91,SSE,161,0.0,4.0,89,0.00,,---,0.00,VWS V14.01,2013-02-14 15:29:00,
2013-02-14 10:35:00,28.1,25.3,29.91,South,191,1.0,5.0,89,0.00,,---,0.00,VWS V14.01,2013-02-14 15:35:00,
2013-02-14 10:41:00,28.5,25.4,29.90,SSE,153,0.0,5.0,88,0.00,,---,0.00,VWS V14.01,2013-02-14 15:41:00,
2013-02-14 10:47:00,28.8,25.7,29.90,SSW,203,4.0,5.0,88,0.00,,---,0.00,VWS V14.01,2013-02-14 15:47:00,
2013-02-14 10:53:00,29.1,26.0,29.90,South,176,2.0,6.0,88,0.00,,---,0.00,VWS V14.01,2013-02-14 15:53:00,
2013-02-14 10:59:00,29.5,26.1,29.90,SSE,161,1.0,6.0,87,0.00,,---,0.00,VWS V14.01,2013-02-14 15:59:00,
2013-02-14 11:05:00,29.6,26.2,29.90,SSW,210,0.0,9.0,87,0.00,,---,0.00,VWS V14.01,2013-02-14 16:05:00,
2013-02-14 11:11:00,29.6,25.9,29.90,SSW,205,0.0,9.0,86,0.00,,---,0.00,VWS V14.01,2013-02-14 16:11:00,
2013-02-14 11:18:00,29.9,26.5,29.90,South,169,2.0,9.0,87,0.00,,---,0.00,VWS V14.01,2013-02-14 16:18:00,
2013-02-14 11:24:00,29.9,26.2,29.90,SW,229,2.0,9.0,86,0.00,,---,0.00,VWS V14.01,2013-02-14 16:24:00,
2013-02-14 11:30:00,30.1,26.4,29.90,WSW,238,2.0,9.0,86,0.00,,---,0.00,VWS V14.01,2013-02-14 16:30:00,
2013-02-14 11:36:00,30.3,26.9,29.90,SW,225,0.0,3.0,87,0.01,,---,0.01,VWS V14.01,2013-02-14 16:36:00,
2013-02-14 11:42:00,30.5,26.8,29.89,SSW,199,1.0,5.0,86,0.01,,---,0.01,VWS V14.01,2013-02-14 16:42:00,
2013-02-14 11:48:00,30.7,27.0,29.89,SSE,154,1.0,6.0,86,0.01,,---,0.01,VWS V14.01,2013-02-14 16:48:00,
2013-02-14 11:54:00,30.9,27.2,29.89,WSW,244,0.0,6.0,86,0.01,,---,0.01,VWS V14.01,2013-02-14 16:54:00,
2013-02-14 12:00:00,31.1,27.1,29.89,SW,233,1.0,6.0,85,0.01,,---,0.01,VWS V14.01,2013-02-14 17:00:00,
2013-02-14 12:06:00,31.3,27.3,29.89,WSW,248,0.0,3.0,85,0.01,,---,0.01,VWS V14.01,2013-02-14 17:06:00,
2013-02-14 12:12:00,31.4,27.4,29.89,SW,227,2.0,4.0,85,0.01,,---,0.01,VWS V14.01,2013-02-14 17:12:00,
2013-02-14 12:18:00,31.5,27.5,29.89,SW,236,4.0,7.0,85,0.01,,---,0.01,VWS V14.01,2013-02-14 17:18:00,
2013-02-14 12:24:00,31.5,27.5,29.88,South,181,1.0,7.0,85,0.01,,---,0.01,VWS V14.01,2013-02-14 17:24:00,
2013-02-14 12:30:00,31.9,27.9,29.88,SSE,164,3.0,7.0,85,0.01,,---,0.01,VWS V14.01,2013-02-14 17:30:00,
2013-02-14 12:36:00,32.1,28.1,29.88,WSW,239,5.0,5.0,85,0.01,,---,0.01,VWS V14.01,2013-02-14 17:36:00,
2013-02-14 12:42:00,32.3,28.3,29.88,SSW,207,2.0,6.0,85,0.01,,---,0.01,VWS V14.01,2013-02-14 17:42:00,
2013-02-14 12:48:00,32.3,28.0,29.88,SW,221,3.0,6.0,84,0.01,,---,0.01,VWS V14.01,2013-02-14 17:48:00,
2013-02-14 12:54:00,32.1,28.1,29.88,SW,223,2.0,9.0,85,0.01,,---,0.01,VWS V14.01,2013-02-14 17:54:00,
2013-02-14 13:00:00,32.1,28.1,29.88,SW,221,4.0,10.0,85,0.01,,---,0.01,VWS V14.01,2013-02-14 18:00:00,
2013-02-14 13:06:00,32.1,28.4,29.87,South,184,3.0,3.0,86,0.00,,---,0.01,VWS V14.01,2013-02-14 18:06:00,
2013-02-14 13:12:00,32.3,28.9,29.87,SSW,202,2.0,7.0,87,0.00,,---,0.01,VWS V14.01,2013-02-14 18:12:00,
2013-02-14 13:18:00,32.2,28.8,29.87,ESE,118,6.0,8.0,87,0.00,,---,0.01,VWS V14.01,2013-02-14 18:18:00,
2013-02-14 13:24:00,32.3,29.1,29.87,ESE,115,1.0,8.0,88,0.00,,---,0.01,VWS V14.01,2013-02-14 18:24:00,
2013-02-14 13:31:00,32.3,29.1,29.87,South,190,3.0,8.0,88,0.00,,---,0.01,VWS V14.01,2013-02-14 18:31:00,
2013-02-14 13:37:00,32.3,29.1,29.86,SW,221,0.0,7.0,88,0.00,,---,0.01,VWS V14.01,2013-02-14 18:37:00,
2013-02-14 13:43:00,32.6,29.7,29.86,SW,220,2.0,7.0,89,0.00,,---,0.01,VWS V14.01,2013-02-14 18:43:00,
2013-02-14 13:49:00,32.8,29.6,29.86,SSE,155,0.0,7.0,88,0.00,,---,0.01,VWS V14.01,2013-02-14 18:49:00,
2013-02-14 13:55:00,32.7,29.5,29.86,SW,235,2.0,7.0,88,0.00,,---,0.01,VWS V14.01,2013-02-14 18:55:00,
2013-02-14 14:01:00,32.6,29.5,29.86,SW,219,1.0,7.0,88,0.00,,---,0.01,VWS V14.01,2013-02-14 19:01:00,
2013-02-14 14:07:00,32.5,29.4,29.86,SSW,198,1.0,6.0,88,0.01,,---,0.02,VWS V14.01,2013-02-14 19:07:00,
2013-02-14 14:13:00,32.5,29.4,29.86,East,84,1.0,6.0,88,0.01,,---,0.02,VWS V14.01,2013-02-14 19:13:00,
2013-02-14 14:19:00,32.5,29.4,29.86,SW,234,2.0,7.0,88,0.01,,---,0.02,VWS V14.01,2013-02-14 19:19:00,
2013-02-14 14:25:00,32.4,29.5,29.86,SSW,209,0.0,7.0,89,0.01,,---,0.02,VWS V14.01,2013-02-14 19:25:00,
2013-02-14 14:31:00,32.5,29.6,29.86,West,272,0.0,7.0,89,0.02,,---,0.03,VWS V14.01,2013-02-14 19:31:00,
2013-02-14 14:37:00,32.8,30.2,29.85,ESE,119,3.0,3.0,90,0.02,,---,0.03,VWS V14.01,2013-02-14 19:37:00,
2013-02-14 14:43:00,32.8,29.9,29.85,West,259,1.0,6.0,89,0.02,,---,0.03,VWS V14.01,2013-02-14 19:43:00,
2013-02-14 14:49:00,32.8,29.9,29.85,NNE,30,0.0,6.0,89,0.02,,---,0.03,VWS V14.01,2013-02-14 19:49:00,
2013-02-14 14:55:00,32.8,29.9,29.85,SW,227,3.0,6.0,89,0.02,,---,0.03,VWS V14.01,2013-02-14 19:55:00,
2013-02-14 15:03:00,32.9,30.0,29.85,SW,217,0.0,0.0,89,0.01,,---,0.03,VWS V14.01,2013-02-14 20:03:00,
2013-02-14 15:09:00,32.8,29.9,29.84,ESE,118,2.0,5.0,89,0.01,,---,0.03,VWS V14.01,2013-02-14 20:09:00,
2013-02-14 15:15:00,32.8,29.9,29.85,WSW,238,0.0,5.0,89,0.01,,---,0.03,VWS V14.01,2013-02-14 20:15:00,
2013-02-14 15:22:00,32.8,29.9,29.84,SSW,196,0.0,5.0,89,0.01,,---,0.03,VWS V14.01,2013-02-14 20:22:00,
2013-02-14 15:28:00,32.6,29.7,29.85,NW,309,1.0,5.0,89,0.01,,---,0.03,VWS V14.01,2013-02-14 20:28:00,
2013-02-14 15:34:00,32.5,29.9,29.85,SSW,198,3.0,4.0,90,0.00,,---,0.03,VWS V14.01,2013-02-14 20:34:00,
2013-02-14 15:40:00,32.3,29.7,29.85,South,175,2.0,5.0,90,0.00,,---,0.03,VWS V14.01,2013-02-14 20:40:00,
2013-02-14 15:46:00,32.3,29.7,29.85,ENE,71,1.0,6.0,90,0.00,,---,0.03,VWS V14.01,2013-02-14 20:46:00,
2013-02-14 15:52:00,32.3,29.7,29.85,West,277,0.0,6.0,90,0.00,,---,0.03,VWS V14.01,2013-02-14 20:52:00,
2013-02-14 15:58:00,32.3,30.0,29.84,SSW,210,1.0,6.0,91,0.00,,---,0.03,VWS V14.01,2013-02-14 20:58:00,
2013-02-14 16:04:00,32.2,29.9,29.84,WSW,257,0.0,2.0,91,0.00,,---,0.03,VWS V14.01,2013-02-14 21:04:00,
2013-02-14 16:10:00,32.3,30.0,29.84,WSW,246,0.0,4.0,91,0.00,,---,0.03,VWS V14.01,2013-02-14 21:10:00,
2013-02-14 16:16:00,32.3,30.0,29.84,SSW,196,2.0,6.0,91,0.00,,---,0.03,VWS V14.01,2013-02-14 21:16:00,
2013-02-14 16:22:00,32.3,30.0,29.84,South,191,2.0,6.0,91,0.00,,---,0.03,VWS V14.01,2013-02-14 21:22:00,
2013-02-14 16:28:00,32.3,30.0,29.84,WSW,242,0.0,6.0,91,0.01,,---,0.04,VWS V14.01,2013-02-14 21:28:00,
2013-02-14 16:34:00,32.4,30.1,29.84,SSE,167,1.0,3.0,91,0.01,,---,0.04,VWS V14.01,2013-02-14 21:34:00,
2013-02-14 16:40:00,32.4,30.3,29.83,SSW,196,0.0,4.0,92,0.02,,---,0.05,VWS V14.01,2013-02-14 21:40:00,
2013-02-14 16:46:00,32.5,30.4,29.84,SW,235,0.0,4.0,92,0.02,,---,0.05,VWS V14.01,2013-02-14 21:46:00,
2013-02-14 16:52:00,32.4,30.3,29.84,WSW,238,0.0,4.0,92,0.02,,---,0.05,VWS V14.01,2013-02-14 21:52:00,
2013-02-14 16:58:00,32.3,30.2,29.84,SSE,147,1.0,4.0,92,0.02,,---,0.05,VWS V14.01,2013-02-14 21:58:00,
2013-02-14 17:04:00,32.3,30.0,29.84,SE,128,0.0,3.0,91,0.02,,---,0.05,VWS V14.01,2013-02-14 22:04:00,
2013-02-14 17:10:00,32.3,30.2,29.84,SW,226,1.0,4.0,92,0.02,,---,0.05,VWS V14.01,2013-02-14 22:10:00,
2013-02-14 17:16:00,32.3,30.2,29.84,SSE,167,1.0,6.0,92,0.02,,---,0.05,VWS V14.01,2013-02-14 22:16:00,
2013-02-14 17:22:00,32.3,30.2,29.84,SE,132,1.0,11.0,92,0.02,,---,0.05,VWS V14.01,2013-02-14 22:22:00,
2013-02-14 17:31:00,32.3,30.2,29.84,West,260,3.0,11.0,92,0.02,,---,0.05,VWS V14.01,2013-02-14 22:31:00,
2013-02-14 17:37:00,32.4,30.3,29.84,SSW,195,1.0,3.0,92,0.01,,---,0.05,VWS V14.01,2013-02-14 22:37:00,
2013-02-14 17:43:00,32.4,30.3,29.85,SW,228,3.0,5.0,92,0.01,,---,0.05,VWS V14.01,2013-02-14 22:43:00,
2013-02-14 17:49:00,32.5,30.4,29.85,SW,233,2.0,12.0,92,0.01,,---,0.05,VWS V14.01,2013-02-14 22:49:00,
2013-02-14 17:55:00,32.5,30.4,29.85,SW,222,9.0,12.0,92,0.01,,---,0.05,VWS V14.01,2013-02-14 22:55:00,
2013-02-14 18:01:00,32.6,30.5,29.85,SSW,209,1.0,12.0,92,0.01,,---,0.05,VWS V14.01,2013-02-14 23:01:00,
2013-02-14 18:07:00,32.7,30.6,29.85,SSW,194,5.0,14.0,92,0.00,,---,0.05,VWS V14.01,2013-02-14 23:07:00,
2013-02-14 18:13:00,32.7,30.6,29.85,SW,227,5.0,14.0,92,0.00,,---,0.05,VWS V14.01,2013-02-14 23:13:00,
2013-02-14 18:19:00,32.7,30.6,29.86,SSW,196,3.0,14.0,92,0.01,,---,0.06,VWS V14.01,2013-02-14 23:19:00,
2013-02-14 18:25:00,32.8,30.7,29.86,SW,229,6.0,14.0,92,0.01,,---,0.06,VWS V14.01,2013-02-14 23:25:00,
2013-02-14 18:31:00,32.9,30.8,29.86,WSW,245,2.0,14.0,92,0.01,,---,0.06,VWS V14.01,2013-02-14 23:31:00,
2013-02-14 18:37:00,32.8,30.7,29.86,South,188,1.0,6.0,92,0.01,,---,0.06,VWS V14.01,2013-02-14 23:37:00,
2013-02-14 18:43:00,32.7,30.6,29.85,SW,230,4.0,7.0,92,0.01,,---,0.06,VWS V14.01,2013-02-14 23:43:00,
2013-02-14 18:49:00,32.6,30.5,29.85,West,263,2.0,9.0,92,0.01,,---,0.06,VWS V14.01,2013-02-14 23:49:00,
2013-02-14 18:55:00,32.5,30.4,29.86,South,191,3.0,9.0,92,0.01,,---,0.06,VWS V14.01,2013-02-14 23:55:00,
2013-02-14 19:01:00,32.4,30.3,29.85,SSW,194,1.0,9.0,92,0.01,,---,0.06,VWS V14.01,2013-02-15 00:01:00,
2013-02-14 19:07:00,32.4,30.3,29.86,SSW,194,3.0,5.0,92,0.01,,---,0.06,VWS V14.01,2013-02-15 00:07:00,
2013-02-14 19:13:00,32.4,30.3,29.86,SW,221,1.0,5.0,92,0.01,,---,0.06,VWS V14.01,2013-02-15 00:13:00,
2013-02-14 19:19:00,32.4,30.3,29.86,SW,224,3.0,6.0,92,0.01,,---,0.06,VWS V14.01,2013-02-15 00:19:00,
2013-02-14 19:25:00,32.4,30.6,29.87,SW,229,2.0,6.0,93,0.01,,---,0.06,VWS V14.01,2013-02-15 00:25:00,
2013-02-14 19:31:00,32.4,30.6,29.87,SW,217,1.0,6.0,93,0.01,,---,0.06,VWS V14.01,2013-02-15 00:31:00,
2013-02-14 19:37:00,32.4,30.3,29.87,SSW,207,1.0,5.0,92,0.00,,---,0.06,VWS V14.01,2013-02-15 00:37:00,
2013-02-14 19:44:00,32.3,30.5,29.88,WSW,258,0.0,7.0,93,0.00,,---,0.06,VWS V14.01,2013-02-15 00:44:00,
2013-02-14 19:50:00,32.3,30.5,29.88,SW,217,2.0,7.0,93,0.00,,---,0.06,VWS V14.01,2013-02-15 00:50:00,
2013-02-14 19:56:00,32.4,30.6,29.88,WNW,294,3.0,7.0,93,0.00,,---,0.06,VWS V14.01,2013-02-15 00:56:00,
2013-02-14 20:02:00,32.5,30.7,29.88,WSW,237,2.0,2.0,93,0.00,,---,0.06,VWS V14.01,2013-02-15 01:02:00,
2013-02-14 20:08:00,32.4,30.6,29.87,SSW,206,4.0,5.0,93,0.00,,---,0.06,VWS V14.01,2013-02-15 01:08:00,
2013-02-14 20:14:00,32.5,30.7,29.87,SSW,212,2.0,9.0,93,0.00,,---,0.06,VWS V14.01,2013-02-15 01:14:00,
2013-02-14 20:20:00,32.5,30.7,29.87,South,186,4.0,9.0,93,0.01,,---,0.07,VWS V14.01,2013-02-15 01:20:00,
2013-02-14 20:26:00,32.6,30.8,29.87,SW,226,1.0,9.0,93,0.01,,---,0.07,VWS V14.01,2013-02-15 01:26:00,
2013-02-14 20:31:00,32.6,30.8,29.86,WSW,240,0.0,9.0,93,0.01,,---,0.07,VWS V14.01,2013-02-15 01:31:00,
2013-02-14 20:38:00,32.6,30.8,29.86,South,190,2.0,4.0,93,0.01,,---,0.07,VWS V14.01,2013-02-15 01:38:00,
2013-02-14 20:44:00,32.7,30.9,29.86,WSW,254,5.0,5.0,93,0.01,,---,0.07,VWS V14.01,2013-02-15 01:44:00,
2013-02-14 20:50:00,32.6,30.8,29.85,SSW,194,1.0,5.0,93,0.01,,---,0.07,VWS V14.01,2013-02-15 01:50:00,
2013-02-14 20:56:00,32.7,30.9,29.85,SW,222,1.0,5.0,93,0.01,,---,0.07,VWS V14.01,2013-02-15 01:56:00,
2013-02-14 21:01:00,32.7,30.9,29.85,SW,214,1.0,5.0,93,0.01,,---,0.07,VWS V14.01,2013-02-15 02:01:00,
2013-02-14 21:07:00,32.6,30.8,29.85,SW,232,0.0,3.0,93,0.01,,---,0.07,VWS V14.01,2013-02-15 02:07:00,
2013-02-14 21:13:00,32.6,30.8,29.85,South,181,0.0,4.0,93,0.01,,---,0.07,VWS V14.01,2013-02-15 02:13:00,
2013-02-14 21:19:00,32.6,30.8,29.85,SSW,206,2.0,5.0,93,0.01,,---,0.07,VWS V14.01,2013-02-15 02:19:00,
2013-02-14 21:25:00,32.7,30.9,29.84,WSW,244,1.0,5.0,93,0.01,,---,0.07,VWS V14.01,2013-02-15 02:25:00,
2013-02-14 21:31:00,32.6,30.8,29.84,SSW,195,1.0,6.0,93,0.02,,---,0.08,VWS V14.01,2013-02-15 02:31:00,
2013-02-14 21:37:00,32.6,30.8,29.84,ESE,111,4.0,5.0,93,0.01,,---,0.08,VWS V14.01,2013-02-15 02:37:00,
2013-02-14 21:43:00,32.6,30.8,29.84,SSW,202,2.0,5.0,93,0.01,,---,0.08,VWS V14.01,2013-02-15 02:43:00,
2013-02-14 21:49:00,32.6,30.8,29.83,ESE,117,1.0,5.0,93,0.01,,---,0.08,VWS V14.01,2013-02-15 02:49:00,
2013-02-14 21:55:00,32.6,30.8,29.83,SSW,195,2.0,5.0,93,0.01,,---,0.08,VWS V14.01,2013-02-15 02:55:00,
2013-02-14 22:01:00,32.7,30.9,29.83,SW,222,2.0,7.0,93,0.01,,---,0.08,VWS V14.01,2013-02-15 03:01:00,
2013-02-14 22:07:00,32.7,30.9,29.83,SSW,205,1.0,4.0,93,0.01,,---,0.08,VWS V14.01,2013-02-15 03:07:00,
2013-02-14 22:13:00,32.7,30.9,29.83,SSW,208,2.0,6.0,93,0.01,,---,0.08,VWS V14.01,2013-02-15 03:13:00,
2013-02-14 22:19:00,32.8,31.0,29.83,SSW,206,2.0,7.0,93,0.01,,---,0.08,VWS V14.01,2013-02-15 03:19:00,
2013-02-14 22:25:00,32.9,31.1,29.85,WSW,258,1.0,7.0,93,0.01,,---,0.08,VWS V14.01,2013-02-15 03:25:00,
2013-02-14 22:31:00,33.0,31.2,29.85,WSW,237,9.0,11.0,93,0.01,,---,0.08,VWS V14.01,2013-02-15 03:31:00,
2013-02-14 22:37:00,33.1,31.3,29.85,WSW,238,3.0,9.0,93,0.01,,---,0.09,VWS V14.01,2013-02-15 03:37:00,
2013-02-14 22:43:00,33.0,31.2,29.84,WSW,240,2.0,9.0,93,0.01,,---,0.09,VWS V14.01,2013-02-15 03:43:00,
2013-02-14 22:49:00,33.0,31.2,29.84,West,279,2.0,9.0,93,0.01,,---,0.09,VWS V14.01,2013-02-15 03:49:00,
2013-02-14 22:55:00,33.1,31.3,29.85,SW,215,1.0,9.0,93,0.01,,---,0.09,VWS V14.01,2013-02-15 03:55:00,
2013-02-14 23:01:00,33.2,31.4,29.85,SW,219,2.0,9.0,93,0.01,,---,0.09,VWS V14.01,2013-02-15 04:01:00,
2013-02-14 23:07:00,33.3,31.5,29.84,SW,224,2.0,6.0,93,0.01,,---,0.09,VWS V14.01,2013-02-15 04:07:00,
2013-02-14 23:13:00,33.3,31.5,29.84,SW,235,4.0,7.0,93,0.01,,---,0.09,VWS V14.01,2013-02-15 04:13:00,
2013-02-14 23:20:00,33.5,31.7,29.85,West,276,3.0,11.0,93,0.01,,---,0.09,VWS V14.01,2013-02-15 04:20:00,
2013-02-14 23:26:00,33.8,32.0,29.84,WNW,296,5.0,11.0,93,0.01,,---,0.09,VWS V14.01,2013-02-15 04:26:00,
2013-02-14 23:31:00,33.9,32.1,29.85,SW,224,4.0,11.0,93,0.01,,---,0.09,VWS V14.01,2013-02-15 04:31:00,
2013-02-14 23:38:00,34.0,32.2,29.85,West,278,5.0,9.0,93,0.02,,---,0.10,VWS V14.01,2013-02-15 04:38:00,
2013-02-14 23:44:00,34.0,32.2,29.85,SW,234,1.0,11.0,93,0.02,,---,0.10,VWS V14.01,2013-02-15 04:44:00,
2013-02-14 23:50:00,34.1,32.3,29.85,WNW,284,4.0,11.0,93,0.02,,---,0.10,VWS V14.01,2013-02-15 04:50:00,
2013-02-14 23:56:00,34.2,32.4,29.86,WNW,286,6.0,11.0,93,0.02,,---,0.10,VWS V14.01,2013-02-15 04:56:00,